Dr. Bill's Marine Weather

Coastal Marine Forecast

       Alabama   Florida   Louisiana   Mississippi

Printer Friendly AL  FL  LA  MS

Data Buoys:   Western Gulf of Mexico    Eastern Gulf of Mexico
**********************************************************************
  Alabama
700 AM CDT MON MAY 30 2016

ALZ051>064-301300-
SOUTHWEST ALABAMA
  
CITY           SKY/WX    TMP DP  RH WIND       PRES   REMARKS
MOBILE         MOSUNNY   72  71  97 NW5       30.03R                  
6HR MIN TEMP:  68; 6HR MAX TEMP:  73;                                

BROOKLEY FIELD SUNNY     74  71  91 CALM      30.04R                  
6HR MIN TEMP:  71; 6HR MAX TEMP:  75; 6HR PCP: TRACE;                

EVERGREEN      SUNNY     69  66  90 CALM      30.04R                  
6HR MIN TEMP:  66; 6HR MAX TEMP:  70;                                

**********************************************************************
  Florida
800 AM EDT MON MAY 30 2016

FLZ001>010-012>015-112-114-115-301300-
PANHANDLE FLORIDA
  
CITY           SKY/WX    TMP DP  RH WIND       PRES   REMARKS
PENSACOLA      MOSUNNY   75  69  81 CALM      30.01R                  
MILTON NAS     MOSUNNY   75  70  84 N6        30.02                   
CRESTVIEW      MOSUNNY   68  66  93 CALM      30.03R                  
DUKE FIELD     FAIR      69  67  92 N1        30.01R                  
VALPARAISO     PTSUNNY   73  68  82 N3        30.00S                  
MARY ESTHER    CLOUDY    73  69  87 N6        30.00R                  
TRI COUNTY     FAIR      71  68  90 CALM      30.03R                  
PANAMA CITY    FAIR      73  68  84 CALM      30.00R                  
TYNDALL AFB    SUNNY     75  72  88 CALM      30.01R                  
APALACHICOLA   MOSUNNY   75  72  90 NW5       30.00S                  

STATION/POSITION SKY/WX   TEMP    WIND        PRES    WAVE   SWELL
                          AIR SEA DIR/SP/G            HT/PER HT/PER
                          (F)     (DEG/KT/KT) (MB)    (FT/S) (FT/S)
30.1N   87.6W              81 81              1015.6R   1/ 6
29.2N   88.2W              78 80  280/  4/  6 1015.9R
28.8N   86.0W              79 80  320/  6/  8 1016.8R   1/ 3
PANAMA CITY BEAC           75 79  330/  4/  6 1016.1R
TOWER C                    78     360/ 11/ 11 1016.7R
28.5N   84.5W              79 80  320/  8/ 10 1016.2R   1/ 3

**********************************************************************
  Louisiana
700 AM CDT MON MAY 30 2016

LAZ040-048-061>063-065-066-069-301300-
SOUTHEAST LOUISIANA
  
CITY           SKY/WX    TMP DP  RH WIND       PRES   REMARKS
N.O. AUDUBON     N/A     75  73  92 MISG        N/A                   
6HR MIN TEMP:  73; 6HR MAX TEMP:  77;                                

N.O. INTL ARPT PTSUNNY   75  72  90 W3        30.03R                  
6HR MIN TEMP:  73; 6HR MAX TEMP:  76;                                

N.O. LAKEFRONT SUNNY     79  72  79 NW8       30.03R                  
6HR MIN TEMP:  77; 6HR MAX TEMP:  80;                                

N.O. DOWNTOWN* FAIR      77  72  84 NW3       30.04R                  
6HR MIN TEMP:  76; 6HR MAX TEMP:  80;                                

RESERVE*       FAIR      74  72  93 CALM      30.04R FOG              
6HR MIN TEMP:  72; 6HR MAX TEMP:  76;                                

SLIDELL        SUNNY     72  70  93 CALM      30.02R                  
6HR MIN TEMP:  69; 6HR MAX TEMP:  73;                                

BATON ROUGE    SUNNY     72  69  90 CALM      30.03R                  
6HR MIN TEMP:  70; 6HR MAX TEMP:  77;                                

BOOTHVILLE     SUNNY     75  72  90 CALM      30.02R                  
6HR MIN TEMP:  74; 6HR MAX TEMP:  77;                                

BELLE CHASSE   MOSUNNY   72  71  97 CALM      30.03R                  
6HR MIN TEMP:  69; 6HR MAX TEMP:  73;                                

BOGALUSA*      FAIR      70  66  88 CALM      30.05R                  
6HR MIN TEMP:  68; 6HR MAX TEMP:  74;                                

GALLIANO*      SUNNY     65  64  96 CALM      30.02R                  
6HR MIN TEMP:  64; 6HR MAX TEMP:  68;                                

NEW ROADS*     FAIR      71  71  98 CALM      30.03R                  
6HR MIN TEMP:  69; 6HR MAX TEMP:  74;                                

GONZALES*      FAIR      71  71 100 CALM      30.03R FOG              
6HR MIN TEMP:  69; 6HR MAX TEMP:  74;                                

HAMMOND*       SUNNY     70  68  94 CALM      30.04R FOG              
HOUMA*         SUNNY     72  72 100 CALM      30.03R                  
PORT FOURCHON* SUNNY     79  72  78 SW3       30.02R                  

**********************************************************************
  Mississippi
700 AM CDT MON MAY 30 2016

MSZ080>082-301300-
COASTAL MISSISSIPPI
  
CITY           SKY/WX    TMP DP  RH WIND       PRES   REMARKS
BAY ST LOUIS   SUNNY     72  66  83 NW6       30.02                   
BILOXI         SUNNY     76  73  92 VRB2      30.01R                  
6HR MIN TEMP:  74; 6HR MAX TEMP:  78;                                

PASCAGOULA     SUNNY     72  70  93 CALM      30.02R                  
6HR MIN TEMP:  66; 6HR MAX TEMP:  72;                                

GULFPORT       MOSUNNY   74  70  87 NW7       30.01R                  
6HR MIN TEMP:  70; 6HR MAX TEMP:  75;                                

About Us | Coastal Marine Forecast | Offshore Marine Forecast
Gulf Coast Tides | Hourly Weather Observations | Weather Radar
Sea Surface Temperatures | Solar/Lunar Data | Hurricane Advisories | Home
     
USA Logo Dr. Bill's Marine Weather
Last date changed: December 9, 2014 4:08 PM
www.gulfmarineweather.com/hourlyweatherobservations.shtml
Contact Us